SWA4101 -KSAN

Flight info

Callsign SWA4101
Flight time N/A
Altitude 6000
Route
Aircraft B738/M-VGDW/C

Departure

Time N/A
Airport -

Arrival

Time 2026-05-06 00:24
Airport San Diego International Airport (KSAN)
Time Latitude Longitude Altitude Speed Heading
2026-05-06 00:15 32.83681 -117.23282 8170 ft 275 kts 146°
2026-05-06 00:15 32.82122 -117.21968 7861 ft 273 kts 142°
2026-05-06 00:15 32.80990 -117.20181 7532 ft 272 kts 113°
2026-05-06 00:15 32.80404 -117.18063 7247 ft 270 kts 105°
2026-05-06 00:16 32.79950 -117.15931 6930 ft 268 kts 104°
2026-05-06 00:16 32.79502 -117.13790 6607 ft 267 kts 104°
2026-05-06 00:16 32.79041 -117.11654 6342 ft 263 kts 105°
2026-05-06 00:16 32.78626 -117.09769 6221 ft 254 kts 105°
2026-05-06 00:17 32.78180 -117.07763 6095 ft 248 kts 105°
2026-05-06 00:17 32.77710 -117.05842 6046 ft 238 kts 112°
2026-05-06 00:17 32.77035 -117.04055 5922 ft 242 kts 116°
2026-05-06 00:17 32.76269 -117.02160 5319 ft 258 kts 117°
2026-05-06 00:18 32.75507 -117.00258 5145 ft 251 kts 116°
2026-05-06 00:18 32.74796 -116.98407 5013 ft 242 kts 112°
2026-05-06 00:18 32.74256 -116.96546 5014 ft 238 kts 108°
2026-05-06 00:18 32.73563 -116.94756 4918 ft 242 kts 129°
2026-05-06 00:19 32.72239 -116.93532 4605 ft 241 kts 157°
2026-05-06 00:19 32.70652 -116.93045 4292 ft 234 kts 185°
2026-05-06 00:19 32.69172 -116.93566 4035 ft 222 kts 217°
2026-05-06 00:19 32.68200 -116.94911 3844 ft 212 kts 247°
2026-05-06 00:20 32.67940 -116.96565 3756 ft 202 kts 279°
2026-05-06 00:20 32.68409 -116.98101 3779 ft 200 kts 293°
2026-05-06 00:20 32.68819 -116.99655 3796 ft 197 kts 282°
2026-05-06 00:20 32.69115 -117.01253 3679 ft 202 kts 282°
2026-05-06 00:21 32.69435 -117.02937 3239 ft 215 kts 283°
2026-05-06 00:21 32.69812 -117.04647 2984 ft 210 kts 285°
2026-05-06 00:21 32.70195 -117.06273 2748 ft 200 kts 286°
2026-05-06 00:21 32.70581 -117.07833 2294 ft 194 kts 287°
2026-05-06 00:22 32.70963 -117.09312 1949 ft 181 kts 287°
2026-05-06 00:22 32.71327 -117.10695 1678 ft 169 kts 287°
2026-05-06 00:22 32.71650 -117.12018 1322 ft 165 kts 286°
2026-05-06 00:22 32.71973 -117.13312 969 ft 163 kts 287°
2026-05-06 00:23 32.72308 -117.14550 764 ft 149 kts 284°
2026-05-06 00:23 32.72562 -117.15632 589 ft 129 kts 283°
2026-05-06 00:23 32.72791 -117.16625 319 ft 119 kts 284°
2026-05-06 00:23 32.73010 -117.17537 95 ft 109 kts 285°
2026-05-06 00:24 32.73214 -117.18380 30 ft 105 kts 286°
2026-05-06 00:24 32.73378 -117.19048 22 ft 55 kts 286°
2026-05-06 00:24 32.73440 -117.19307 21 ft 24 kts 285°
2026-05-06 00:24 32.73429 -117.19472 24 ft 11 kts 241°
2026-05-06 00:25 32.73403 -117.19506 23 ft 0 kts 217°
2026-05-06 00:27 32.73400 -117.19510 23 ft 2 kts 229°
2026-05-06 00:27 32.73395 -117.19530 23 ft 3 kts 261°
2026-05-06 00:27 32.73395 -117.19551 23 ft 2 kts 277°
2026-05-06 00:27 32.73399 -117.19570 22 ft 2 kts 287°
2026-05-06 00:28 32.73404 -117.19587 23 ft 2 kts 288°
2026-05-06 00:28 32.73407 -117.19597 24 ft 0 kts 289°
2026-05-06 00:28 32.73410 -117.19607 23 ft 2 kts 289°
2026-05-06 00:28 32.73414 -117.19622 22 ft 0 kts 287°
2026-05-06 00:29 32.73415 -117.19625 22 ft 1 kts 286°
2026-05-06 00:29 32.73417 -117.19634 22 ft 0 kts 285°
2026-05-06 00:30 32.73418 -117.19639 22 ft 2 kts 284°